Darstellungsparameter: Aktuell verwendete Einstellungen:
Skalierung der Graphiken ... ?
xyx+y,   Skalierungsfaktor:      Skalierung: Modus: x, Faktor: 1
Darstellungszeitraum ... ?
Vom - - bis: - -   Zeitraum: 13.05.2021 - 14.05.2021
Min/Max/Avg-Anzeige ... ?
Zeige MMA aktuell
Zeige MMA Monat
Zeige MMA alles
Zeige --A aktuell
Zeige --A Monat
Zeige --A alles
Keine MMA-Anzeige
MMA:
Minimum Maximum Average (ber die Originaldaten)
MMA-Basis: 14.04.2020 - 16.05.2020
Quicknavigation für Darstellung... ?
Tage:      1T, 2T, 3T, 5T -1T -2T -3T -5T +1T +2T +3T +5T
Wochen: 1W, 2W, 3W -1W -2W -3W +1W +2W +3W
Monate: 1M, 3M, 6M -1M -3M -6M +1M +3M +6M
Jahre:    1J, 3J, 5J, 10J -1J -3J -5J -10J +1J +3J +5J +10J
Nutze für die Darstellung ... ?
Originaldaten oder Mittelwerte auf ...
Stundenbasis Tagesbasis Wochenbasis
Monatsbasis Jahresbasis      Datenbasis: Original-Daten
Darstellen als:
Statistik (Auto) Statistik J:M      Darstellung:

Der gewünschte Datumsbereich war nicht gültig/verfügbar und wurde korrigiert....
Das angegebene Enddatum (18.03.2026 23:59:59) liegt in der Zukunft.
Das angegebene Startdatum (27.11.2025 00:00:00) liegt in der Zukunft.


Zur Graphik,    zurück zur Übersicht aller Sensoren.
 
Tabellarische Datenbersicht: ?
 
Sensor: Nr:Datum:Temp:Abs-Feuchte:Windchill:Wind:
Aussen-T/F 1 13-05-2021 02:00:00 8.5 C 7.94 g/m*3 8.5 C 0 km/h
2 13-05-2021 02:05:00 8.4 C 7.89 g/m*3 8.4 C 0 km/h
3 13-05-2021 02:10:00 8.4 C 7.89 g/m*3 8.4 C 0 km/h
4 13-05-2021 02:15:00 8.3 C 7.84 g/m*3 8.3 C 0 km/h
5 13-05-2021 02:20:00 8.3 C 7.84 g/m*3 8.3 C 0 km/h
6 13-05-2021 02:25:00 8.2 C 7.79 g/m*3 8.2 C 0 km/h
7 13-05-2021 02:30:00 8.1 C 7.74 g/m*3 8.1 C 0 km/h
8 13-05-2021 02:35:00 8.1 C 7.74 g/m*3 8.1 C 0 km/h
9 13-05-2021 02:40:00 8 C 7.77 g/m*3 8 C 0 km/h
10 13-05-2021 02:45:00 7.9 C 7.72 g/m*3 7.9 C 1.6 km/h
11 13-05-2021 02:50:00 7.9 C 7.72 g/m*3 7.9 C 1.6 km/h
12 13-05-2021 02:55:00 8 C 7.77 g/m*3 8 C 0 km/h
13 13-05-2021 03:00:00 7.9 C 7.72 g/m*3 7.9 C 0 km/h
14 13-05-2021 03:05:00 7.8 C 7.67 g/m*3 7.8 C 1.6 km/h
15 13-05-2021 03:10:00 7.8 C 7.67 g/m*3 7.8 C 0 km/h
16 13-05-2021 03:15:00 7.7 C 7.62 g/m*3 7.7 C 0 km/h
17 13-05-2021 03:20:00 7.7 C 7.62 g/m*3 7.7 C 0 km/h
18 13-05-2021 03:25:00 7.7 C 7.62 g/m*3 7.7 C 0 km/h
19 13-05-2021 03:30:00 7.6 C 7.57 g/m*3 7.6 C 0 km/h
20 13-05-2021 03:35:00 7.5 C 7.52 g/m*3 7.5 C 0 km/h
21 13-05-2021 03:40:00 7.4 C 7.48 g/m*3 7.4 C 0 km/h
22 13-05-2021 03:45:00 7.4 C 7.48 g/m*3 7.4 C 0 km/h
23 13-05-2021 03:50:00 7.4 C 7.48 g/m*3 7.4 C 0 km/h
24 13-05-2021 03:55:00 7.4 C 7.55 g/m*3 7.4 C 0 km/h
25 13-05-2021 04:00:00 7.4 C 7.55 g/m*3 7.4 C 0 km/h
Sensor: Nr:Datum:Temp:Abs-Feuchte:Windchill:Wind:
Aussen-T/F 26 13-05-2021 04:05:00 7.4 C 7.55 g/m*3 7.4 C 0 km/h
27 13-05-2021 04:10:00 7.3 C 7.51 g/m*3 7.3 C 0 km/h
28 13-05-2021 04:15:00 7.3 C 7.51 g/m*3 7.3 C 0 km/h
29 13-05-2021 04:20:00 7.2 C 7.46 g/m*3 7.2 C 0 km/h
30 13-05-2021 04:25:00 7.2 C 7.46 g/m*3 7.2 C 0 km/h
31 13-05-2021 04:30:00 7.2 C 7.46 g/m*3 7.2 C 0 km/h
32 13-05-2021 04:35:00 7.2 C 7.46 g/m*3 7.2 C 0 km/h
33 13-05-2021 04:40:00 7.2 C 7.46 g/m*3 7.2 C 0 km/h
34 13-05-2021 04:45:00 7.2 C 7.46 g/m*3 7.2 C 0 km/h
35 13-05-2021 04:50:00 7.1 C 7.41 g/m*3 7.1 C 0 km/h
36 13-05-2021 04:55:00 7.1 C 7.41 g/m*3 7.1 C 0 km/h
37 13-05-2021 05:00:00 7 C 7.36 g/m*3 7 C 0 km/h
38 13-05-2021 05:05:00 7 C 7.36 g/m*3 7 C 1.6 km/h
39 13-05-2021 05:10:00 7 C 7.36 g/m*3 7 C 0 km/h
40 13-05-2021 05:15:00 6.9 C 7.31 g/m*3 6.9 C 0 km/h
41 13-05-2021 05:20:00 6.8 C 7.27 g/m*3 6.8 C 0 km/h
42 13-05-2021 05:25:00 6.7 C 7.22 g/m*3 6.7 C 0 km/h
43 13-05-2021 05:30:00 6.6 C 7.17 g/m*3 6.6 C 0 km/h
44 13-05-2021 05:35:00 6.6 C 7.17 g/m*3 6.6 C 0 km/h
45 13-05-2021 05:40:00 6.5 C 7.12 g/m*3 6.5 C 0 km/h
46 13-05-2021 05:45:00 6.4 C 7.08 g/m*3 6.4 C 0 km/h
47 13-05-2021 05:50:00 6.4 C 7.08 g/m*3 6.4 C 0 km/h
48 13-05-2021 05:55:00 6.5 C 7.12 g/m*3 6.5 C 0 km/h
49 13-05-2021 06:00:00 6.4 C 7.08 g/m*3 6.4 C 0 km/h
50 13-05-2021 06:05:00 6.4 C 7.08 g/m*3 6.4 C 0 km/h
Sensor: Nr:Datum:Temp:Abs-Feuchte:Windchill:Wind:
Aussen-T/F 51 13-05-2021 06:10:00 6.4 C 7.08 g/m*3 6.4 C 0 km/h
52 13-05-2021 06:15:00 6.5 C 7.2 g/m*3 6.5 C 3.2 km/h
53 13-05-2021 06:20:00 6.7 C 7.29 g/m*3 6.7 C 4.8 km/h
54 13-05-2021 06:25:00 6.8 C 7.34 g/m*3 6.8 C 3.2 km/h
55 13-05-2021 06:30:00 6.9 C 7.39 g/m*3 6.9 C 0 km/h
56 13-05-2021 06:35:00 6.9 C 7.39 g/m*3 6.9 C 0 km/h
57 13-05-2021 06:40:00 6.9 C 7.39 g/m*3 6.9 C 0 km/h
58 13-05-2021 06:45:00 6.9 C 7.39 g/m*3 6.9 C 0 km/h
59 13-05-2021 06:50:00 7 C 7.44 g/m*3 7 C 0 km/h
60 13-05-2021 06:55:00 7.1 C 7.49 g/m*3 7.1 C 0 km/h
61 13-05-2021 07:00:00 7.1 C 7.49 g/m*3 7.1 C 0 km/h
62 13-05-2021 07:05:00 7.2 C 7.54 g/m*3 7.2 C 1.6 km/h
63 13-05-2021 07:10:00 7.2 C 7.54 g/m*3 7.2 C 0 km/h
64 13-05-2021 07:15:00 7.2 C 7.54 g/m*3 7.2 C 0 km/h
65 13-05-2021 07:20:00 7.3 C 7.58 g/m*3 7.3 C 0 km/h
66 13-05-2021 07:25:00 7.3 C 7.58 g/m*3 7.3 C 0 km/h
67 13-05-2021 07:30:00 7.4 C 7.63 g/m*3 7.4 C 0 km/h
68 13-05-2021 07:35:00 7.4 C 7.63 g/m*3 7.4 C 0 km/h
69 13-05-2021 07:40:00 7.4 C 7.63 g/m*3 7.4 C 0 km/h
70 13-05-2021 07:45:00 7.5 C 7.68 g/m*3 7.5 C 0 km/h
71 13-05-2021 07:50:00 7.6 C 7.73 g/m*3 7.6 C 0 km/h
72 13-05-2021 07:55:00 7.8 C 7.83 g/m*3 7.8 C 0 km/h
73 13-05-2021 08:00:00 7.9 C 7.89 g/m*3 7.9 C 1.6 km/h
74 13-05-2021 08:05:00 7.9 C 7.89 g/m*3 7.9 C 0 km/h
75 13-05-2021 08:10:00 8 C 7.94 g/m*3 8 C 0 km/h
Sensor: Nr:Datum:Temp:Abs-Feuchte:Windchill:Wind:
Aussen-T/F 76 13-05-2021 08:15:00 8.1 C 7.99 g/m*3 8.1 C 0 km/h
77 13-05-2021 08:20:00 8.1 C 7.99 g/m*3 8.1 C 0 km/h
78 13-05-2021 08:25:00 8.1 C 7.99 g/m*3 8.1 C 0 km/h
79 13-05-2021 08:30:00 8.2 C 8.04 g/m*3 8.2 C 0 km/h
80 13-05-2021 08:35:00 8.2 C 8.04 g/m*3 8.2 C 0 km/h
81 13-05-2021 08:40:00 8.3 C 8.09 g/m*3 8.3 C 1.6 km/h
82 13-05-2021 08:45:00 8.3 C 8.09 g/m*3 8.3 C 0 km/h
83 13-05-2021 08:50:00 8.4 C 8.14 g/m*3 8.4 C 0 km/h
84 13-05-2021 08:55:00 8.5 C 8.2 g/m*3 8.5 C 0 km/h
85 13-05-2021 09:00:00 8.7 C 8.3 g/m*3 8.7 C 0 km/h
86 13-05-2021 09:05:00 8.8 C 8.36 g/m*3 8.8 C 0 km/h
87 13-05-2021 09:10:00 9.1 C 8.61 g/m*3 9.1 C 3.2 km/h
88 13-05-2021 09:15:00 9.2 C 8.57 g/m*3 9.2 C 3.2 km/h
89 13-05-2021 09:20:00 9.3 C 8.63 g/m*3 9.3 C 3.2 km/h
90 13-05-2021 09:25:00 9.5 C 8.74 g/m*3 9.5 C 1.6 km/h
91 13-05-2021 09:30:00 9.6 C 8.79 g/m*3 9.6 C 0 km/h
92 13-05-2021 09:35:00 9.7 C 8.76 g/m*3 9.7 C 0 km/h
93 13-05-2021 09:40:00 9.8 C 8.91 g/m*3 9.8 C 0 km/h
94 13-05-2021 09:45:00 9.9 C 8.87 g/m*3 9.9 C 0 km/h
95 13-05-2021 09:50:00 10.1 C 8.98 g/m*3 10.1 C 1.6 km/h
96 13-05-2021 09:55:00 10.2 C 9.04 g/m*3 10.2 C 1.6 km/h
97 13-05-2021 10:00:00 10.3 C 9.1 g/m*3 10.3 C 3.2 km/h
98 13-05-2021 10:05:00 10.4 C 9.16 g/m*3 10.4 C 0 km/h
99 13-05-2021 10:10:00 10.6 C 9.27 g/m*3 10.6 C 0 km/h
100 13-05-2021 10:15:00 10.7 C 9.23 g/m*3 10.7 C 0 km/h
Sensor: Nr:Datum:Temp:Abs-Feuchte:Windchill:Wind:
Aussen-T/F 101 13-05-2021 10:20:00 11 C 9.41 g/m*3 11 C 0 km/h
102 13-05-2021 10:25:00 11.2 C 9.53 g/m*3 11.2 C 0 km/h
103 13-05-2021 10:30:00 11.6 C 9.67 g/m*3 11.6 C 0 km/h
104 13-05-2021 10:35:00 11.9 C 9.74 g/m*3 11.9 C 0 km/h
105 13-05-2021 10:40:00 12.4 C 9.83 g/m*3 12.4 C 0 km/h
106 13-05-2021 10:45:00 12.7 C 9.8 g/m*3 12.7 C 0 km/h
107 13-05-2021 10:50:00 13.1 C 9.7 g/m*3 13.1 C 0 km/h
108 13-05-2021 10:55:00 13.3 C 9.7 g/m*3 13.3 C 0 km/h
109 13-05-2021 11:00:00 13.6 C 9.77 g/m*3 13.6 C 0 km/h
110 13-05-2021 11:05:00 13.8 C 9.65 g/m*3 13.8 C 0 km/h
111 13-05-2021 11:10:00 14.1 C 9.71 g/m*3 14.1 C 0 km/h
112 13-05-2021 11:15:00 14.4 C 9.39 g/m*3 14.4 C 0 km/h
113 13-05-2021 11:20:00 14.7 C 9.19 g/m*3 14.7 C 0 km/h
114 13-05-2021 11:25:00 15 C 9.62 g/m*3 15 C 0 km/h
115 13-05-2021 11:30:00 15.1 C 9.93 g/m*3 15.1 C 0 km/h
116 13-05-2021 11:35:00 15 C 10.13 g/m*3 15 C 0 km/h
117 13-05-2021 11:40:00 15 C 10.26 g/m*3 15 C 0 km/h
118 13-05-2021 11:45:00 14.9 C 9.56 g/m*3 14.9 C 0 km/h
119 13-05-2021 11:50:00 15 C 9.1 g/m*3 15 C 0 km/h
120 13-05-2021 11:55:00 15.2 C 9.09 g/m*3 15.2 C 0 km/h
121 13-05-2021 12:00:00 15.5 C 9.91 g/m*3 15.5 C 0 km/h
122 13-05-2021 12:05:00 15.6 C 9.84 g/m*3 15.6 C 0 km/h
123 13-05-2021 12:10:00 15.8 C 10.1 g/m*3 15.8 C 0 km/h
124 13-05-2021 12:15:00 15.8 C 10.1 g/m*3 15.8 C 0 km/h
125 13-05-2021 12:20:00 16 C 10.22 g/m*3 16 C 0 km/h
Sensor: Nr:Datum:Temp:Abs-Feuchte:Windchill:Wind:
Aussen-T/F 126 13-05-2021 12:25:00 16.1 C 10.28 g/m*3 16.1 C 0 km/h
127 13-05-2021 12:30:00 16.3 C 10.27 g/m*3 16.3 C 0 km/h
128 13-05-2021 12:35:00 16.4 C 9.21 g/m*3 16.4 C 0 km/h
129 13-05-2021 12:40:00 16.7 C 8.81 g/m*3 16.7 C 0 km/h
130 13-05-2021 12:45:00 16.9 C 8.63 g/m*3 16.9 C 0 km/h
131 13-05-2021 12:50:00 17.2 C 8.35 g/m*3 17.2 C 1.6 km/h
132 13-05-2021 12:55:00 17.4 C 8 g/m*3 17.4 C 4.8 km/h
133 13-05-2021 13:00:00 17.7 C 7.85 g/m*3 17.7 C 4.8 km/h
134 13-05-2021 13:05:00 17.8 C 7.89 g/m*3 17.8 C 1.6 km/h
135 13-05-2021 13:10:00 17.8 C 7.89 g/m*3 17.8 C 3.2 km/h
136 13-05-2021 13:15:00 17.8 C 8.5 g/m*3 17.8 C 0 km/h
137 13-05-2021 13:20:00 17.9 C 8.24 g/m*3 17.9 C 1.6 km/h
138 13-05-2021 13:25:00 17.9 C 8.4 g/m*3 17.9 C 3.2 km/h
139 13-05-2021 13:30:00 17.9 C 8.09 g/m*3 17.9 C 3.2 km/h
140 13-05-2021 13:35:00 17.8 C 7.89 g/m*3 17.8 C 0 km/h
141 13-05-2021 13:40:00 17.9 C 8.09 g/m*3 17.9 C 0 km/h
142 13-05-2021 13:45:00 18.1 C 8.03 g/m*3 18.1 C 6.4 km/h
143 13-05-2021 13:50:00 18.4 C 7.71 g/m*3 18.4 C 11.3 km/h
144 13-05-2021 13:55:00 18.6 C 7.8 g/m*3 18.6 C 9.7 km/h
145 13-05-2021 14:00:00 18.7 C 8.01 g/m*3 18.7 C 8.1 km/h
146 13-05-2021 14:05:00 18.7 C 7.04 g/m*3 18.7 C 6.4 km/h
147 13-05-2021 14:10:00 18.8 C 7.73 g/m*3 18.8 C 6.4 km/h
148 13-05-2021 14:15:00 19.1 C 6.88 g/m*3 19.1 C 11.3 km/h
149 13-05-2021 14:20:00 19.3 C 6.97 g/m*3 19.3 C 6.4 km/h
150 13-05-2021 14:25:00 19.3 C 7.13 g/m*3 19.3 C 4.8 km/h
Sensor: Nr:Datum:Temp:Abs-Feuchte:Windchill:Wind:
Aussen-T/F 151 13-05-2021 14:30:00 19.3 C 7.46 g/m*3 19.3 C 14.5 km/h
152 13-05-2021 14:35:00 19.4 C 7.67 g/m*3 19.4 C 9.7 km/h
153 13-05-2021 14:40:00 19.4 C 7.51 g/m*3 19.4 C 9.7 km/h
154 13-05-2021 14:45:00 19.4 C 8.34 g/m*3 19.4 C 11.3 km/h
155 13-05-2021 14:50:00 19.3 C 8.63 g/m*3 19.3 C 9.7 km/h
156 13-05-2021 14:55:00 19.2 C 8.41 g/m*3 19.2 C 6.4 km/h
157 13-05-2021 15:00:00 19.1 C 8.36 g/m*3 19.1 C 11.3 km/h
158 13-05-2021 15:05:00 19.2 C 8.41 g/m*3 19.2 C 9.7 km/h
159 13-05-2021 15:10:00 19.7 C 8.83 g/m*3 19.7 C 6.4 km/h
160 13-05-2021 15:15:00 19.8 C 8.03 g/m*3 19.8 C 12.9 km/h
161 13-05-2021 15:20:00 19.9 C 8.25 g/m*3 19.9 C 11.3 km/h
162 13-05-2021 15:25:00 20.3 C 8.44 g/m*3 20.3 C 12.9 km/h
163 13-05-2021 15:30:00 20.2 C 8.04 g/m*3 20.2 C 11.3 km/h
164 13-05-2021 15:35:00 19.9 C 7.73 g/m*3 19.9 C 12.9 km/h

Legende:
   Min
   Max


Maximal/Minimal-Werte vom 14.04.2020 - 16.05.2020

Sensor Min Max Avg
Temp
(Aussen-T/F)
-0.1 °C
15-04-2020  06:55:00
26.2 °C
17-04-2020  18:05:00
11.98 °C

Die Daten stammen von einer Davis Vantage Pro 2 Wetter-Station und werden unter Linux mit der Software wview2wettercgi und aufbereitet. Alle Angaben erfolgen ohne Gewähr für ihre Vollständigkeit oder Richtigkeit.
Kontakt: Rainer Krienke krienke@uni-koblenz.de . Meine Webseiten an der Uni Koblenz oder privat.
Version: $Revision: 0.78 $